Theta_e
344 350 361 363 361 363 361 361 362 363 363 363 362 362 361 361 362 362 361 361 360 358 358 359 355 353 356 356 357 358 357 360 361 361 361 362 360 360 359 359 359 354 359
347 351 362 364 361 362 361 361 362 363 363 361 362 361 361 360 359 361 361 360 359 358 359 357 355 353 356 356 357 356 358 359 359 359 361 361 360 360 359 359 359 356 358
349 355 358 364 362 361 361 362 363 362 362 362 362 362 361 361 361 360 361 359 358 359 359 357 356 356 355 355 357 357 356 359 360 359 361 357 356 360 360 360 359 357 358
352 355 356 362 363 362 361 361 363 361 362 362 362 361 361 361 361 360 360 361 360 358 358 358 356 356 356 356 356 358 356 356 358 356 352 355 355 359 360 360 359 358 358
352 354 357 363 363 362 362 363 362 361 362 362 361 361 359 360 360 361 361 360 358 358 358 357 357 356 356 355 355 354 356 356 355 351 351 354 357 358 359 358 359 358 357
353 354 361 362 362 361 362 362 360 361 362 362 362 360 361 361 360 361 360 360 358 357 358 358 358 356 354 354 354 356 356 356 353 349 353 356 355 359 357 356 357 358 358
351 352 356 363 363 361 361 363 360 361 362 362 362 361 361 360 360 360 360 359 360 359 359 359 358 356 355 355 355 356 357 356 349 350 351 353 357 359 357 358 357 357 357
352 353 355 361 363 361 360 362 360 361 361 361 360 361 362 362 361 361 360 359 359 359 359 359 357 356 356 356 357 357 357 354 351 351 353 355 358 358 358 357 357 357 357
354 354 352 354 358 361 360 361 360 361 361 361 362 362 362 362 361 361 361 360 359 359 357 356 356 356 357 357 357 358 358 355 352 353 354 355 358 356 356 357 357 356 356
352 353 350 351 352 353 355 361 360 360 360 360 360 361 361 361 360 360 359 359 360 359 357 357 356 356 358 358 357 359 357 357 353 354 356 354 358 353 357 356 357 356 356
351 350 350 349 350 351 354 356 360 361 361 360 359 360 357 353 353 356 358 360 359 359 358 358 358 359 358 357 359 358 357 352 352 353 355 356 358 356 355 356 356 356 356
346 349 348 349 350 351 356 353 354 356 355 354 354 351 349 351 353 354 356 359 359 358 359 358 358 358 352 351 356 356 350 351 352 354 355 357 357 353 356 357 356 356 355
345 350 348 348 349 350 352 351 352 352 352 351 348 345 347 351 354 353 351 344 341 349 348 351 349 348 349 350 351 349 349 350 351 353 355 358 357 355 356 356 355 356 355
343 347 348 348 347 348 349 350 350 350 350 349 346 341 348 349 349 349 348 345 346 347 346 349 351 352 350 350 350 349 348 350 350 352 356 357 358 353 353 356 356 355 355
343 347 347 347 346 347 346 348 348 348 349 349 346 340 347 346 346 345 347 348 348 349 349 347 351 349 346 342 349 351 348 348 350 351 354 355 357 355 352 353 354 355 355
344 345 346 346 346 345 343 345 346 346 347 348 347 347 341 343 345 346 348 349 350 350 349 347 350 347 344 342 346 349 349 347 349 351 354 358 358 358 353 350 350 351 352
343 345 344 344 345 343 343 343 344 346 347 347 347 348 344 347 346 347 348 350 350 351 349 348 350 346 343 338 343 346 346 347 349 351 353 353 357 355 355 355 353 352 351
343 343 344 346 344 342 342 342 342 344 346 346 348 349 349 349 348 349 349 351 351 351 351 350 348 340 342 338 339 343 343 345 346 350 351 352 355 357 355 356 357 356 355
343 342 341 343 342 342 342 341 341 343 344 345 348 349 350 351 349 351 349 350 351 350 351 350 347 345 341 341 338 340 341 341 343 345 347 349 351 353 354 357 358 357 355
342 341 340 342 341 341 341 342 343 344 344 344 348 350 351 351 352 350 348 350 345 349 349 351 346 343 343 342 336 335 337 342 342 343 344 347 348 350 350 352 355 356 357
340 338 339 339 340 341 341 339 341 340 343 345 347 350 351 353 353 348 349 347 345 349 349 348 340 338 337 338 336 334 336 338 340 342 342 343 344 346 347 349 351 352 350
338 336 338 339 339 343 342 342 342 341 342 345 346 350 352 353 353 349 350 347 349 349 347 346 344 340 337 338 333 331 329 334 334 335 340 342 343 344 345 346 349 349 348
338 335 337 339 339 343 343 342 341 341 341 342 344 347 350 352 355 353 350 349 349 352 348 349 345 340 336 338 335 332 327 327 329 333 336 340 343 343 344 345 346 346 347
337 338 337 339 339 342 343 342 341 339 337 338 341 344 349 352 353 354 352 351 351 352 349 349 348 343 339 337 338 335 334 333 330 330 333 336 340 341 343 343 345 345 347
339 338 338 338 339 341 343 343 342 340 338 339 341 342 346 350 353 355 354 353 351 351 351 351 347 344 337 336 336 337 337 334 330 329 328 332 336 339 340 341 342 345 347
340 339 339 338 338 340 343 343 342 341 337 339 338 339 341 348 350 353 355 353 353 352 351 349 350 346 340 337 335 337 337 335 334 330 327 329 331 337 337 338 340 343 346
Wind_Speed
2 4 15 17 17 17 16 16 15 16 15 14 15 15 14 13 13 12 12 11 12 11 11 11 10 9 9 11 11 11 12 13 13 13 13 13 14 13 15 15 14 13 15
8 6 14 17 16 16 16 16 15 15 15 14 15 14 14 13 13 12 12 12 12 11 10 10 10 10 10 11 10 11 11 12 10 11 12 13 12 13 14 14 13 14 15
9 7 11 16 16 17 15 15 14 15 15 14 14 13 14 13 13 14 12 11 12 11 10 10 10 10 10 10 9 12 11 11 12 11 12 8 7 13 14 15 14 15 14
10 6 8 16 15 17 15 15 14 14 14 13 13 13 13 12 12 13 13 12 12 11 9 9 10 10 10 9 9 10 12 11 13 9 4 5 9 12 14 14 15 14 15
8 6 10 16 15 16 14 14 15 14 12 11 13 12 11 11 13 13 12 10 8 10 10 10 10 10 10 9 10 8 10 12 11 8 6 5 5 12 14 14 13 14 13
9 6 15 16 15 16 14 13 15 13 11 12 13 12 11 11 12 12 11 9 9 9 11 10 10 9 9 8 8 8 10 11 10 6 5 7 5 13 13 13 13 12 13
9 6 10 15 15 15 14 12 14 12 12 11 12 12 11 11 12 11 11 10 9 10 11 11 10 9 8 7 6 7 9 13 7 5 5 4 5 11 12 13 12 13 12
10 7 8 14 15 14 14 12 12 11 11 11 10 10 12 11 11 10 10 10 10 10 11 11 11 10 9 8 7 9 13 12 8 6 5 4 9 11 12 12 12 12 11
8 6 6 6 12 14 13 12 12 11 10 9 10 10 11 10 9 9 9 10 11 10 11 11 12 10 9 9 8 10 10 11 6 4 5 3 8 10 10 11 11 11 11
6 6 6 5 6 6 6 12 12 10 10 9 9 9 9 8 8 7 6 7 10 9 10 11 11 10 9 7 7 11 11 11 5 5 3 3 6 10 11 10 10 11 11
6 6 5 5 6 5 4 6 10 11 10 9 7 8 6 3 4 4 4 7 8 8 8 9 10 9 9 6 8 10 11 4 5 3 2 7 6 9 10 11 9 11 9
12 8 5 6 6 5 4 3 4 4 3 4 4 4 3 2 3 2 2 6 8 7 7 8 7 8 6 3 4 6 4 5 4 4 2 6 6 8 9 10 9 9 9
16 9 6 6 5 5 4 3 2 2 2 2 3 1 1 2 2 2 2 3 3 5 3 4 3 3 3 2 3 4 5 4 3 3 3 6 5 8 8 8 8 8 8
17 15 7 6 6 5 3 3 3 2 2 2 2 2 2 2 1 2 2 2 2 1 3 3 1 1 2 3 4 6 5 4 4 3 3 5 6 6 6 7 8 7 8
16 13 10 7 7 5 4 3 3 3 2 3 3 3 2 2 3 2 2 1 2 1 3 3 2 2 2 1 4 6 7 5 6 3 2 6 5 7 6 6 5 6 6
13 11 10 9 7 6 5 5 3 3 3 3 3 3 4 3 3 2 1 2 2 1 3 2 1 1 2 2 4 5 5 5 5 5 3 3 7 8 7 6 6 6 4
12 11 11 10 7 7 6 5 4 4 4 3 3 4 4 4 3 3 2 2 2 2 3 1 1 2 3 3 5 4 5 5 5 5 3 1 3 4 5 8 8 6 6
12 12 10 10 9 7 6 5 4 4 3 3 3 3 5 4 4 4 3 2 2 2 2 2 2 2 3 2 2 3 4 4 4 5 3 3 2 3 5 6 6 6 7
13 12 10 9 9 9 6 4 5 5 4 3 3 4 5 5 4 3 2 2 3 2 1 2 1 1 1 1 3 3 3 3 2 3 3 3 3 3 1 6 7 7 8
12 11 11 9 7 7 4 3 2 2 3 3 4 4 6 4 3 3 3 3 3 1 1 1 3 2 1 1 5 4 2 2 1 1 2 2 3 3 3 3 2 4 8
13 12 13 12 8 7 3 4 2 3 2 1 3 5 6 5 4 4 2 3 3 3 2 2 2 4 2 2 3 3 3 3 2 1 1 1 2 3 3 2 2 2 3
15 15 13 14 9 8 6 3 3 3 2 2 3 4 5 6 6 5 4 4 4 3 3 3 3 2 1 1 2 2 2 2 2 1 2 3 4 2 3 3 4 3 2
17 16 14 15 12 11 9 4 3 3 3 2 1 2 4 6 6 6 5 4 4 3 3 2 3 4 3 0 1 4 2 2 1 1 1 3 4 2 3 3 4 4 3
17 15 15 14 13 11 11 9 8 6 6 4 4 3 4 6 7 6 5 5 4 3 4 3 3 3 3 3 1 2 3 3 2 1 1 1 3 4 5 3 3 5 4
15 15 14 14 13 12 12 12 10 8 4 3 3 6 5 5 6 7 6 5 4 3 3 4 4 4 3 3 2 2 1 2 2 2 2 2 2 4 4 5 4 4 5
16 15 14 14 14 14 13 14 13 13 7 5 4 5 4 3 4 5 5 5 4 3 4 4 3 4 4 3 2 2 3 3 2 2 1 2 2 2 3 4 5 5 6
Wind_Direction
183 176 131 121 118 117 115 113 114 114 116 120 122 122 127 131 133 134 129 124 116 115 114 106 96 97 101 105 108 106 109 106 106 109 110 105 102 102 95 96 95 101 96
134 171 131 124 124 119 119 119 119 120 115 116 120 123 126 127 132 128 127 125 121 119 104 99 94 98 98 100 101 103 105 106 109 113 124 112 109 109 107 106 106 100 101
139 146 132 128 129 123 124 122 123 120 117 118 115 117 119 125 129 134 129 123 122 120 109 101 95 99 100 105 108 112 108 103 99 100 98 111 112 115 114 107 103 103 98
136 133 131 130 133 125 126 127 117 115 116 120 124 119 120 128 129 119 125 123 126 127 112 104 101 97 100 101 102 110 115 117 94 80 62 98 112 113 107 106 104 102 99
128 125 145 135 136 129 132 125 118 123 120 124 116 114 119 121 121 117 117 118 120 112 108 106 104 103 102 107 107 120 120 117 102 90 85 83 99 111 110 108 102 102 105
135 136 138 139 141 132 129 131 124 126 117 117 119 113 109 106 110 113 115 113 99 98 104 105 110 105 102 105 109 119 136 119 109 101 93 97 102 118 113 111 109 104 103
134 139 140 143 142 139 133 130 126 127 111 114 117 121 115 112 113 111 111 111 99 94 96 96 100 112 111 101 100 117 116 119 117 107 100 97 108 113 114 112 108 106 104
133 132 148 149 140 147 136 132 129 128 121 118 120 123 115 110 111 111 109 105 100 94 93 101 109 108 106 104 84 115 116 119 113 111 106 109 117 104 109 108 112 107 106
125 130 131 152 147 149 145 143 137 136 131 123 118 114 114 119 119 118 114 111 102 100 98 104 112 114 103 98 96 125 121 122 113 120 116 103 108 117 122 112 111 108 101
127 126 143 147 122 131 149 148 148 144 140 132 126 122 122 118 119 117 112 107 102 97 93 97 111 116 107 94 91 137 127 126 109 102 99 136 123 120 110 112 112 110 104
136 137 148 136 135 143 143 162 153 151 148 141 134 123 83 84 69 77 112 100 98 98 100 101 104 110 114 109 102 133 112 115 115 111 121 131 128 118 119 113 114 112 114
170 161 155 147 148 151 159 129 138 155 105 95 92 109 120 116 133 113 352 96 76 60 89 85 106 113 99 101 86 96 119 122 114 117 134 138 124 115 118 114 110 112 123
174 173 162 160 151 161 149 140 135 119 118 111 126 140 124 74 72 87 68 36 25 63 48 48 55 85 106 131 121 110 127 127 129 126 163 127 108 112 113 116 120 125 120
177 180 164 168 156 173 145 150 160 157 137 150 182 169 155 129 121 131 114 93 64 71 70 35 6 340 165 198 149 131 137 143 146 143 164 140 131 125 131 125 120 141 134
181 180 176 171 171 175 167 161 164 182 172 180 180 165 157 179 164 141 143 137 108 80 78 38 29 36 22 56 160 160 155 153 148 153 153 160 160 148 147 131 129 132 141
181 181 173 183 180 167 177 179 175 180 189 193 192 181 184 190 165 144 203 184 105 7 81 85 23 65 44 83 129 167 144 143 147 153 170 198 186 161 156 160 175 176 171
186 176 180 181 176 178 183 185 175 196 190 201 201 192 193 197 194 152 218 210 138 106 74 60 27 14 84 52 69 125 134 135 144 158 169 191 183 183 195 178 191 195 195
177 182 180 186 184 182 182 181 181 196 199 208 204 187 195 209 180 160 186 198 136 92 120 79 49 14 21 45 105 102 110 132 147 148 163 188 186 188 199 225 215 215 227
179 174 180 184 179 184 179 182 188 194 211 214 200 193 199 216 205 176 195 184 125 76 66 111 62 120 197 50 115 91 106 123 123 149 181 190 209 210 220 234 214 230 237
182 177 177 185 179 172 151 149 165 203 227 208 203 191 187 198 198 176 178 162 117 117 122 165 113 82 64 68 91 84 60 97 126 118 206 220 213 193 222 234 260 242 250
185 181 178 181 182 161 146 150 169 193 191 192 188 185 181 179 182 188 194 158 174 148 167 107 99 94 37 83 99 59 49 63 157 195 205 210 239 239 213 209 220 235 267
184 188 182 190 173 182 183 154 151 156 205 161 156 188 180 181 175 187 189 178 166 143 124 137 115 102 73 49 114 90 40 11 50 298 240 221 222 193 224 230 237 235 248
194 189 187 188 184 185 176 125 94 80 45 54 84 158 198 186 183 190 186 183 163 152 168 160 137 122 136 16 98 131 117 210 342 338 270 240 235 226 229 231 238 244 236
198 190 189 190 185 186 175 175 181 185 185 193 175 174 188 191 194 194 187 183 181 162 175 170 157 135 149 152 95 70 67 134 152 339 305 273 224 232 245 250 241 244 231
189 193 190 188 188 185 183 187 190 200 175 159 162 177 183 191 198 192 188 181 185 187 166 169 170 169 166 148 157 150 112 70 84 128 260 292 281 236 239 245 243 247 246
204 191 189 186 191 183 182 194 194 199 173 164 171 184 195 196 195 196 182 190 182 195 190 182 188 191 183 159 169 172 168 163 181 153 200 248 253 278 246 231 229 229 230